Location: Chubiniantkari
(42.0378°N, 44.6472°E)
Time: 23:33:40
(UTC+00:00)

Daily predictions for brighter satellites

Satellite Brightness Start Highest point End
(mag) Time Altitude Azimuth Time Altitude Azimuth Time Altitude Azimuth
Cosmos 2218 Rocket 4.0 14:56:05 10° N 15:02:12 66° E 15:08:20 10° SSE
GEOS 3 Rocket 3.8 15:00:02 10° NE 15:05:25 82° NW 15:10:40 10° SW
Cosmos 2292 4.4 15:02:39 10° S 15:05:32 48° E 15:08:42 10° NNE
CZ-4B R/B 3.3 15:02:33 10° SE 15:05:38 31° ENE 15:08:46 10° N
Cosmos 864 Rocket 4.5 15:01:30 10° N 15:07:47 74° E 15:13:57 10° SSE
NOSS 2-2 (C) 3.6 15:04:56 10° SW 15:08:14 54° NW 15:11:23 10° NNE
USA 305 1.3 15:07:54 10° NW 15:10:08 62° NE 15:12:23 10° ESE
USA 307 1.7 15:08:01 10° NW 15:10:35 78° SW 15:13:14 10° SE
ADEOS 3.6 15:08:02 10° SSE 15:13:12 69° ENE 15:18:24 10° N
Meteor 1-29 3.1 15:12:01 10° S 15:14:50 61° WSW 15:17:40 10° NNW
Cosmos 1980 4.2 15:10:04 10° S 15:15:12 38° ESE 15:20:22 10° NE
Cosmos 1269 Rocket 4.3 15:11:23 10° S 15:16:26 47° ESE 15:21:30 10° NNE
Cosmos 1975 3.4 15:14:46 10° SSW 15:18:35 60° W 15:22:26 10° N
IGS 5A 4.1 15:15:54 10° SE 15:19:33 32° ENE 15:23:14 10° N
BREEZE-M R/B 4.3 15:17:44 10° NW 15:22:18 56° NNE 15:31:18 11° ESE
CZ-4B R/B 4.2 15:18:55 10° ESE 15:23:07 25° ENE 15:27:21 10° N
Cosmos 1867 3.9 15:19:35 10° S 15:24:41 44° ESE 15:29:50 10° NE
Cosmos 1703 Rocket 3.5 15:20:50 10° N 15:25:19 76° E 15:29:46 10° SSE
SKYMED 2 3.9 15:21:16 10° N 15:25:36 71° WNW 15:29:54 10° SSW
Cosmos 614 Rocket 3.9 15:21:40 10° S 15:26:40 70° ESE 15:31:43 10° NNE
NOSS 3-1 (C) 3.3 15:21:51 10° SW 15:26:45 72° NW 15:32:35 10° NNE
NOAA 6 4.5 15:23:02 10° S 15:28:08 67° WSW 15:33:18 10° NNW
Cosmos 2278 Rocket 2.4 15:23:24 10° NNW 15:28:54 49° ENE 15:34:22 10° SE
Cosmos 1933 Rocket 3.7 15:26:09 10° S 15:30:31 82° W 15:34:53 10° N
Cosmos 2242 Rocket 4.0 15:28:35 10° N 15:32:53 42° ENE 15:37:12 10° SSE
Cosmos 1992 Rocket 4.0 15:29:36 10° NNW 15:34:47 60° ENE 15:39:56 10° SSE
SL-08 R/B 3.8 15:30:27 10° N 15:35:22 68° WNW 15:40:13 10° SSW
Cosmos 1766 3.2 15:32:00 10° S 15:35:40 53° E 15:39:20 10° NNE
APEX 3.9 15:33:02 10° NW 15:36:20 45° WSW 15:39:12 10° S
Cosmos 2181 Rocket 4.5 15:30:23 10° SSW 15:36:45 68° W 15:43:04 10° N
Okean 2 3.2 15:36:48 10° N 15:40:49 79° E 15:44:50 10° S
SL-14 R/B 4.2 15:42:31 10° NNW 15:46:18 51° W 15:50:02 10° S
CZ-4C R/B 4.0 15:46:19 10° NE 15:49:12 25° E 15:52:09 10° SSE
Cosmos 2239 Rocket 4.5 15:43:18 10° N 15:49:26 60° E 15:55:35 10° SSE
ISS -2.8 15:47:23 10° WNW 15:50:35 43° SW 15:53:07 15° SSE
Cosmos 2237 Rocket 2.1 15:47:31 10° SSW 15:53:11 74° ESE 15:58:52 10° NNE
Cosmos 1821 Rocket 4.1 15:48:29 10° N 15:54:49 88° W 16:01:12 10° S
YAOGAN 1 2.6 15:51:09 10° SSE 15:55:27 84° WSW 15:59:48 10° NNW
Cosmos 2369 Rocket 4.1 15:54:32 10° NNE 15:56:39 12° NE 15:57:36 12° NE
COSMOS 2455 3.2 15:52:26 10° NW 15:58:26 68° WSW 16:04:22 10° SSE
USA 276 1.5 15:57:40 10° SW 16:00:13 57° SE 16:00:15 57° SE
NOSS 0 Rocket 4.2 15:54:44 10° SSW 16:00:54 72° WNW 16:07:09 10° NNE
ATLAS 3B R/B 3.6 15:54:52 10° WSW 16:01:36 52° NW 16:08:50 10° NNE
Lacrosse 5 3.6 15:58:05 10° NNW 16:01:48 20° NNE 16:04:06 15° NE
SL-16 R/B 3.0 15:58:13 10° SSE 16:02:51 27° ESE 16:04:39 22° ENE
CZ-4 R/B 1.4 16:00:43 22° SE 16:02:59 51° ENE 16:06:41 10° N
SL-4 R/B 2.4 16:03:32 10° SSW 16:07:43 45° SE 16:08:47 37° E
ADEOS Rocket 4.1 16:04:49 23° ESE 16:08:24 33° ENE 16:14:41 10° N
DELTA 2 DEB (DPAF) 4.5 16:04:18 10° N 16:08:35 65° WNW 16:12:52 10° SSW
Cosmos 1943 Rocket 2.4 16:04:24 10° NNW 16:09:54 49° ENE 16:12:28 29° ESE
Cosmos 1869 Rocket 4.3 16:07:20 10° SSW 16:11:36 53° W 16:15:52 10° N
Nadezhda 3 Rocket 4.2 16:09:58 10° SSW 16:16:20 76° W 16:22:43 10° N
Cosmos 1470 2.5 16:13:47 10° S 16:17:36 77° E 16:21:29 10° N
Landsat 7 3.7 16:13:51 14° SSE 16:17:57 76° ENE 16:22:40 10° N
Meteor 1-12 Rocket 4.3 16:15:40 10° S 16:21:19 55° E 16:27:06 10° NNE
SJ-6B 2.7 16:20:12 39° SSE 16:21:32 69° ENE 16:25:30 10° N
USA 229 DEB 3.4 16:18:00 10° SSW 16:24:02 69° ESE 16:30:37 10° NE
USA 229 3.4 16:18:05 10° SSW 16:24:08 68° ESE 16:30:43 10° NE
Cosmos 2221 Rocket 4.2 16:20:20 10° N 16:24:01 37° ENE 16:24:01 37° ENE
Okean O Rocket 1.7 16:24:45 48° ESE 16:25:31 56° ENE 16:29:53 10° N
CSL-04 Debris 4.3 16:25:01 38° ESE 16:26:41 51° ENE 16:31:55 10° N
SME Rocket 3.9 16:20:57 10° SSE 16:28:26 72° ENE 16:33:23 10° N
Cosmos 407 Rocket 3.5 16:31:50 10° S 16:36:55 56° ESE 16:42:06 10° NNE
USA 215 4.2 16:39:31 28° SSE 16:39:31 28° SSE 16:43:33 10° S
Meteor 1-24 Rocket 3.5 16:34:48 10° N 16:40:06 59° ENE 16:40:34 56° E
Tiangong -0.8 16:37:24 10° W 16:39:28 38° W 16:39:28 38° W
NOSS 3-1 (A) 4.2 16:35:58 10° WSW 16:40:45 43° NW 16:46:26 10° NNE
Resurs 1-3 3.5 16:39:55 55° S 16:40:53 87° W 16:45:16 10° NNW
CSL-04 Rocket 3.5 16:42:37 57° ESE 16:43:19 64° ENE 16:48:35 10° N
Meteor 2-5 Rocket 3.6 16:38:36 10° N 16:44:14 69° ENE 16:45:22 54° SE
BREEZE-M DEB (TANK) 3.7 16:39:20 10° WSW 16:44:44 52° NNW 16:44:51 52° NNW
SPOT 1/Viking Rocket 3.4 16:49:41 70° ESE 16:50:01 73° ENE 16:55:10 10° N
Cosmos 1733 Rocket 3.6 16:47:56 10° SSW 16:52:13 55° W 16:56:31 10° N
Resurs 01 Rocket 2.9 16:54:54 31° NNE 16:54:54 31° NNE 16:57:25 10° N
Meteor 1-15 Rocket 4.4 16:47:43 10° SSW 16:53:25 73° W 16:59:04 10° N
CZ-4B R/B 4.1 16:59:07 14° SSW 17:03:24 45° W 17:08:29 10° NNW
Okean-O 4.2 17:09:13 28° N 17:09:13 28° N 17:11:21 10° N
Cosmos 1140 Rocket 4.1 17:05:09 10° SW 17:10:11 55° WNW 17:15:17 10° NNE
USA 267 4.3 17:10:53 29° NE 17:12:11 31° NNE 17:17:47 10° NW
Cosmos 2278 Rocket 4.2 17:08:10 10° NW 17:12:37 24° WSW 17:17:02 10° SSW
Cosmos 1605 Rocket 4.0 17:10:41 10° N 17:16:46 75° W 17:17:51 60° SSW
BREEZE-M DEB (TANK) 4.5 17:26:32 10° WNW 17:28:47 40° WSW 17:28:47 40° WSW
CZ-4 R/B 4.4 17:36:55 10° WSW 17:38:02 11° W 17:39:09 10° WNW
Cosmos 2369 Rocket 3.4 17:36:12 10° NNW 17:39:23 34° N 17:39:23 34° N
Lacrosse 5 3.5 17:40:39 10° NW 17:43:18 30° NNW 17:43:18 30° NNW
SL-16 R/B 3.1 17:41:16 10° SW 17:46:41 45° WNW 17:52:08 10° NNE
Cosmos 1943 Rocket 4.0 17:48:50 10° NW 17:53:17 24° WSW 17:54:02 23° WSW
ADEOS Rocket 4.0 17:51:46 46° SW 17:53:32 55° W 18:00:40 10° NNW
CZ-4C R/B 4.2 17:48:17 10° NNW 17:53:06 27° NNE 17:53:06 27° NNE
CENTAUR R/B 3.6 17:48:57 10° NNW 17:56:11 52° NNE 17:56:11 52° NNE
Okean O Rocket 4.4 18:02:09 14° W 18:02:10 14° W 18:04:27 10° WNW
ATLAS 2AS CENTAUR R/B 3.9 23:34:40 36° N 23:34:40 36° N 23:39:30 10° NNE
